| time (UTC) | temp F | wind direction | speed knots | gust knots | rain 1hr in | rain 24hr in | rain mn in | humidity % | barometer mb |
| 20260502233908 | 66 | 193 | 4.3 | 6.1 | 0.00 | 0.00 | 0.00 | 34 | 1011.0 |
| 20260502233403 | 66 | 164 | 3.5 | 4.3 | 0.00 | 0.00 | 0.00 | 34 | 1010.8 |
| 20260502232900 | 66 | 76 | 1.7 | 2.6 | 0.00 | 0.00 | 0.00 | 34 | 1011.2 |
| 20260502232356 | 66 | 169 | 0.0 | 0.0 | 0.00 | 0.00 | 0.00 | 34 | 1011.3 |
| 20260502231853 | 66 | 173 | 0.0 | 0.0 | 0.00 | 0.00 | 0.00 | 34 | 1011.0 |
| 20260502231351 | 66 | 166 | 1.7 | 2.6 | 0.00 | 0.00 | 0.00 | 32 | 1011.0 |
| 20260502230849 | 66 | 182 | 1.7 | 2.6 | 0.00 | 0.00 | 0.00 | 32 | 1011.1 |
| 20260502230347 | 67 | 176 | 1.7 | 2.6 | 0.00 | 0.00 | 0.00 | 32 | 1011.1 |
| 20260502225843 | 67 | 156 | 0.9 | 1.7 | 0.00 | 0.00 | 0.00 | 33 | 1011.1 |
| 20260502225340 | 67 | 115 | 1.7 | 1.7 | 0.00 | 0.00 | 0.00 | 34 | 1011.2 |
| 20260502224837 | 67 | 133 | 1.7 | 2.6 | 0.00 | 0.00 | 0.00 | 33 | 1011.1 |
| 20260502224333 | 67 | 200 | 2.6 | 6.1 | 0.00 | 0.00 | 0.00 | 32 | 1011.3 |
| 20260502223831 | 67 | 202 | 1.7 | 4.3 | 0.00 | 0.00 | 0.00 | 32 | 1011.5 |
| 20260502223329 | 66 | 152 | 2.6 | 4.3 | 0.00 | 0.00 | 0.00 | 33 | 1011.4 |
| 20260502222826 | 66 | 176 | 0.9 | 1.7 | 0.00 | 0.00 | 0.00 | 34 | 1011.4 |
| 20260502222323 | 66 | 189 | 0.0 | 0.0 | 0.00 | 0.00 | 0.00 | 34 | 1011.5 |
| 20260502221819 | 66 | 173 | 0.0 | 0.0 | 0.00 | 0.00 | 0.00 | 34 | 1011.6 |
| 20260502221315 | 66 | 171 | 0.9 | 1.7 | 0.00 | 0.00 | 0.00 | 33 | 1011.7 |
| 20260502220813 | 66 | 160 | 2.6 | 4.3 | 0.00 | 0.00 | 0.00 | 33 | 1011.8 |
| 20260502220308 | 66 | 179 | 0.0 | 1.7 | 0.00 | 0.00 | 0.00 | 33 | 1012.0 |
| 20260502215805 | 67 | 192 | 0.9 | 2.6 | 0.00 | 0.00 | 0.00 | 33 | 1011.7 |
| 20260502215304 | 67 | 303 | 3.5 | 4.3 | 0.00 | 0.00 | 0.00 | 32 | 1012.0 |
| 20260502214800 | 67 | 221 | 1.7 | 2.6 | 0.00 | 0.00 | 0.00 | 32 | 1012.0 |
| 20260502214256 | 66 | 177 | 0.0 | 1.7 | 0.00 | 0.00 | 0.00 | 33 | 1012.0 |
| 20260502213753 | 68 | 28 | 4.3 | 6.1 | 0.00 | 0.00 | 0.00 | 31 | 1012.1 |
| 20260502213251 | 68 | 346 | 1.7 | 2.6 | 0.00 | 0.00 | 0.00 | 31 | 1012.0 |
| 20260502212749 | 68 | 5 | 3.5 | 7.8 | 0.00 | 0.00 | 0.00 | 32 | 1012.1 |
| 20260502212247 | 68 | 296 | 3.5 | 7.8 | 0.00 | 0.00 | 0.00 | 32 | 1012.3 |
| 20260502211743 | 69 | 194 | 3.5 | 4.3 | 0.00 | 0.00 | 0.00 | 30 | 1012.4 |
| 20260502211240 | 67 | 248 | 2.6 | 2.6 | 0.00 | 0.00 | 0.00 | 31 | 1012.6 |
| 20260502210737 | 69 | 164 | 3.5 | 4.3 | 0.00 | 0.00 | 0.00 | 30 | 1012.6 |
| 20260502210234 | 70 | 182 | 2.6 | 4.3 | 0.00 | 0.00 | 0.00 | 29 | 1012.7 |
| 20260502205732 | 70 | 241 | 3.5 | 4.3 | 0.00 | 0.00 | 0.00 | 30 | 1012.9 |
| 20260502205227 | 69 | 175 | 1.7 | 2.6 | 0.00 | 0.00 | 0.00 | 30 | 1012.8 |
| 20260502204725 | 69 | 213 | 1.7 | 2.6 | 0.00 | 0.00 | 0.00 | 31 | 1013.2 |
| 20260502204222 | 68 | 210 | 6.1 | 7.8 | 0.00 | 0.00 | 0.00 | 31 | 1013.1 |
| 20260502203720 | 68 | 213 | 1.7 | 2.6 | 0.00 | 0.00 | 0.00 | 32 | 1013.2 |
| 20260502203218 | 69 | 192 | 1.7 | 2.6 | 0.00 | 0.00 | 0.00 | 31 | 1013.3 |
| 20260502202711 | 68 | 198 | 2.6 | 4.3 | 0.00 | 0.00 | 0.00 | 32 | 1013.5 |
| 20260502202210 | 68 | 138 | 2.6 | 4.3 | 0.00 | 0.00 | 0.00 | 30 | 1013.5 |
| 20260502201707 | 68 | 153 | 1.7 | 2.6 | 0.00 | 0.00 | 0.00 | 31 | 1013.6 |
| 20260502201204 | 68 | 314 | 4.3 | 4.3 | 0.00 | 0.00 | 0.00 | 31 | 1013.8 |
| 20260502200659 | 68 | 118 | 3.5 | 4.3 | 0.00 | 0.00 | 0.00 | 32 | 1014.0 |
| 20260502200156 | 68 | 192 | 3.5 | 7.8 | 0.00 | 0.00 | 0.00 | 30 | 1014.0 |
| 20260502195655 | 67 | 193 | 1.7 | 1.7 | 0.00 | 0.00 | 0.00 | 33 | 1014.1 |
| 20260502195150 | 67 | 210 | 3.5 | 6.1 | 0.00 | 0.00 | 0.00 | 33 | 1014.2 |
| 20260502194647 | 67 | 242 | 2.6 | 4.3 | 0.00 | 0.00 | 0.00 | 31 | 1014.3 |
| 20260502194144 | 67 | 203 | 2.6 | 6.1 | 0.00 | 0.00 | 0.00 | 30 | 1014.3 |
| 20260502193641 | 66 | 174 | 0.0 | 1.7 | 0.00 | 0.00 | 0.00 | 34 | 1014.7 |
| 20260502193138 | 64 | 205 | 2.6 | 4.3 | 0.00 | 0.00 | 0.00 | 33 | 1014.5 |
| 20260502192633 | 64 | 191 | 1.7 | 2.6 | 0.00 | 0.00 | 0.00 | 33 | 1014.7 |
| 20260502192131 | 64 | 203 | 0.9 | 1.7 | 0.00 | 0.00 | 0.00 | 32 | 1015.0 |
| 20260502191627 | 65 | 121 | 1.7 | 2.6 | 0.00 | 0.00 | 0.00 | 31 | 1015.1 |
| 20260502191125 | 67 | 211 | 5.2 | 8.7 | 0.00 | 0.00 | 0.00 | 30 | 1015.0 |
| 20260502190622 | 67 | 197 | 1.7 | 2.6 | 0.00 | 0.00 | 0.00 | 30 | 1015.1 |
| 20260502190120 | 66 | 215 | 1.7 | 2.6 | 0.00 | 0.00 | 0.00 | 33 | 1015.1 |
| 20260502185614 | 65 | 172 | 1.7 | 2.6 | 0.00 | 0.00 | 0.00 | 33 | 1015.3 |
| 20260502185111 | 65 | 205 | 4.3 | 6.1 | 0.00 | 0.00 | 0.00 | 31 | 1015.4 |
| 20260502184608 | 65 | 286 | 1.7 | 2.6 | 0.00 | 0.00 | 0.00 | 33 | 1015.5 |
| 20260502184103 | 64 | 193 | 0.9 | 1.7 | 0.00 | 0.00 | 0.00 | 35 | 1015.5 |
| 20260502183559 | 63 | 170 | 2.6 | 2.6 | 0.00 | 0.00 | 0.00 | 33 | 1015.8 |
| 20260502183056 | 64 | 192 | 0.9 | 2.6 | 0.00 | 0.00 | 0.00 | 32 | 1016.0 |
| 20260502182551 | 63 | 40 | 4.3 | 6.1 | 0.00 | 0.00 | 0.00 | 34 | 1015.8 |
| 20260502182047 | 64 | 189 | 2.6 | 4.3 | 0.00 | 0.00 | 0.00 | 34 | 1016.1 |
| 20260502181545 | 63 | 213 | 6.1 | 7.8 | 0.00 | 0.00 | 0.00 | 33 | 1015.8 |
| 20260502181044 | 62 | 13 | 3.5 | 4.3 | 0.00 | 0.00 | 0.00 | 33 | 1016.0 |
| 20260502180541 | 62 | 93 | 3.5 | 4.3 | 0.00 | 0.00 | 0.00 | 33 | 1016.3 |
| 20260502170459 | 60 | 201 | 4.3 | 6.1 | 0.00 | 0.00 | 0.00 | 34 | 1017.4 |
| 20260502163942 | 60 | 334 | 2.6 | 4.3 | 0.00 | 0.00 | 0.00 | 35 | 1017.6 |
| 20260502163438 | 60 | 177 | 2.6 | 4.3 | 0.00 | 0.00 | 0.00 | 35 | 1017.8 |
| 20260502162936 | 60 | 208 | 4.3 | 6.1 | 0.00 | 0.00 | 0.00 | 33 | 1017.8 |
| 20260502162433 | 59 | 190 | 0.9 | 1.7 | 0.00 | 0.00 | 0.00 | 38 | 1017.9 |
| 20260502161930 | 59 | 180 | 4.3 | 7.8 | 0.00 | 0.00 | 0.00 | 34 | 1017.9 |
| 20260502161426 | 59 | 345 | 7.8 | 8.7 | 0.00 | 0.00 | 0.00 | 35 | 1018.0 |
| 20260502160924 | 59 | 208 | 4.3 | 7.8 | 0.00 | 0.00 | 0.00 | 35 | 1017.9 |
| 20260502160422 | 58 | 183 | 3.5 | 4.3 | 0.00 | 0.00 | 0.00 | 36 | 1018.0 |
| 20260502151901 | 57 | 191 | 2.6 | 2.6 | 0.00 | 0.00 | 0.00 | 39 | 1018.3 |
| 20260502151357 | 57 | 180 | 1.7 | 2.6 | 0.00 | 0.00 | 0.00 | 40 | 1018.5 |
| 20260502150855 | 57 | 163 | 2.6 | 4.3 | 0.00 | 0.00 | 0.00 | 41 | 1018.6 |
| 20260502150351 | 56 | 171 | 0.9 | 1.7 | 0.00 | 0.00 | 0.00 | 39 | 1018.4 |
| 20260502130739 | 44 | 180 | 0.0 | 0.0 | 0.00 | 0.00 | 0.00 | 61 | 1019.2 |
| 20260502130237 | 43 | 166 | 0.0 | 0.0 | 0.00 | 0.00 | 0.00 | 61 | 1019.1 |
| 20260502123723 | 41 | 192 | 1.7 | 2.6 | 0.00 | 0.00 | 0.00 | 66 | 1019.1 |
| 20260502123219 | 41 | 179 | 0.0 | 0.0 | 0.00 | 0.00 | 0.00 | 67 | 1019.1 |
| 20260502122716 | 40 | 172 | 0.9 | 1.7 | 0.00 | 0.00 | 0.00 | 67 | 1018.9 |
| 20260502122212 | 40 | 170 | 0.0 | 0.0 | 0.00 | 0.00 | 0.00 | 68 | 1019.0 |
| 20260502121711 | 38 | 171 | 0.0 | 0.0 | 0.00 | 0.00 | 0.00 | 71 | 1019.1 |
| 20260502121208 | 37 | 175 | 0.0 | 0.0 | 0.00 | 0.00 | 0.00 | 74 | 1018.8 |
| 20260502120704 | 37 | 169 | 0.0 | 0.0 | 0.00 | 0.00 | 0.00 | 76 | 1018.7 |
| 20260502120201 | 36 | 175 | 0.0 | 0.0 | 0.00 | 0.00 | 0.00 | 76 | 1018.9 |
| 20260502115659 | 36 | 170 | 0.0 | 0.0 | 0.00 | 0.00 | 0.00 | 75 | 1019.0 |
| 20260502115155 | 36 | 162 | 0.0 | 0.0 | 0.00 | 0.00 | 0.00 | 75 | 1018.9 |
| 20260502114651 | 36 | 165 | 0.0 | 0.0 | 0.00 | 0.00 | 0.00 | 75 | 1019.0 |
| 20260502114149 | 35 | 160 | 0.0 | 0.0 | 0.00 | 0.00 | 0.00 | 75 | 1018.9 |
| 20260502113646 | 35 | 170 | 0.0 | 0.0 | 0.00 | 0.00 | 0.00 | 75 | 1018.8 |
| 20260502113144 | 35 | 169 | 0.0 | 0.0 | 0.00 | 0.00 | 0.00 | 73 | 1018.6 |
| 20260502112642 | 36 | 169 | 0.0 | 0.0 | 0.00 | 0.00 | 0.00 | 72 | 1018.8 |
| 20260502112139 | 36 | 169 | 0.0 | 0.0 | 0.00 | 0.00 | 0.00 | 73 | 1018.8 |
| 20260502111636 | 36 | 179 | 0.0 | 0.0 | 0.00 | 0.00 | 0.00 | 72 | 1018.7 |
| 20260502111134 | 36 | 172 | 0.0 | 0.0 | 0.00 | 0.00 | 0.00 | 72 | 1018.6 |
| 20260502110631 | 36 | 169 | 0.0 | 0.0 | 0.00 | 0.00 | 0.00 | 72 | 1018.6 |
| 20260502110128 | 36 | 175 | 0.0 | 0.0 | 0.00 | 0.00 | 0.00 | 72 | 1018.8 |
| 20260502105626 | 36 | 175 | 0.0 | 0.0 | 0.00 | 0.00 | 0.00 | 72 | 1018.5 |
| 20260502105123 | 36 | 176 | 0.0 | 0.0 | 0.00 | 0.00 | 0.00 | 71 | 1018.5 |
| 20260502104620 | 36 | 177 | 0.0 | 0.0 | 0.00 | 0.00 | 0.00 | 71 | 1018.7 |
| 20260502104117 | 36 | 171 | 0.0 | 0.0 | 0.00 | 0.00 | 0.00 | 70 | 1018.7 |
| 20260502103615 | 36 | 177 | 0.0 | 0.0 | 0.00 | 0.00 | 0.00 | 70 | 1018.6 |
| 20260502103113 | 37 | 174 | 0.0 | 0.0 | 0.00 | 0.00 | 0.00 | 69 | 1018.7 |
| 20260502102609 | 37 | 177 | 0.0 | 0.0 | 0.00 | 0.00 | 0.00 | 69 | 1018.6 |
| 20260502102106 | 37 | 167 | 0.0 | 0.0 | 0.00 | 0.00 | 0.00 | 69 | 1018.4 |
| 20260502101604 | 37 | 176 | 0.0 | 0.0 | 0.00 | 0.00 | 0.00 | 68 | 1018.5 |
| 20260502101102 | 37 | 170 | 0.0 | 0.0 | 0.00 | 0.00 | 0.00 | 68 | 1018.5 |
| 20260502100600 | 37 | 157 | 0.0 | 0.0 | 0.00 | 0.00 | 0.00 | 68 | 1018.5 |
| 20260502091032 | 39 | 180 | 0.0 | 0.0 | 0.00 | 0.00 | 0.00 | 64 | 1018.4 |
| 20260502090529 | 39 | 180 | 0.0 | 0.0 | 0.00 | 0.00 | 0.00 | 63 | 1018.4 |
| 20260502071424 | 41 | 164 | 0.0 | 0.0 | 0.00 | 0.00 | 0.00 | 61 | 1018.7 |
| 20260502070922 | 40 | 182 | 0.0 | 0.0 | 0.00 | 0.00 | 0.00 | 62 | 1018.8 |
| 20260502070420 | 40 | 173 | 0.0 | 0.0 | 0.00 | 0.00 | 0.00 | 63 | 1018.7 |
| 20260502065918 | 40 | 176 | 0.0 | 0.0 | 0.00 | 0.00 | 0.00 | 63 | 1018.9 |
| 20260502065416 | 40 | 172 | 0.0 | 0.0 | 0.00 | 0.00 | 0.00 | 62 | 1018.6 |
| 20260502064914 | 41 | 176 | 0.0 | 0.0 | 0.00 | 0.00 | 0.00 | 62 | 1018.8 |
| 20260502064411 | 41 | 173 | 0.0 | 0.0 | 0.00 | 0.00 | 0.00 | 62 | 1018.9 |
| 20260502063908 | 41 | 180 | 0.0 | 0.0 | 0.00 | 0.00 | 0.00 | 61 | 1018.9 |
| 20260502063406 | 41 | 182 | 0.0 | 0.0 | 0.00 | 0.00 | 0.00 | 61 | 1018.9 |
| 20260502062903 | 41 | 175 | 0.0 | 0.0 | 0.00 | 0.00 | 0.00 | 60 | 1019.0 |
| 20260502062400 | 41 | 173 | 0.0 | 0.0 | 0.00 | 0.00 | 0.00 | 60 | 1018.9 |
| 20260502061859 | 42 | 175 | 0.0 | 0.0 | 0.00 | 0.00 | 0.00 | 60 | 1018.9 |
| 20260502061357 | 42 | 174 | 0.0 | 0.0 | 0.00 | 0.00 | 0.00 | 59 | 1018.9 |
| 20260502060852 | 42 | 177 | 0.0 | 0.0 | 0.00 | 0.00 | 0.00 | 60 | 1019.0 |
| 20260502060347 | 42 | 176 | 0.0 | 0.0 | 0.00 | 0.00 | 0.00 | 60 | 1018.8 |
| 20260502055845 | 41 | 179 | 0.0 | 0.0 | 0.00 | 0.00 | 0.00 | 60 | 1019.0 |
| 20260502055343 | 41 | 184 | 0.0 | 0.0 | 0.00 | 0.00 | 0.00 | 59 | 1019.1 |
| 20260502054842 | 41 | 172 | 0.0 | 0.0 | 0.00 | 0.00 | 0.00 | 60 | 1019.2 |
| 20260502054339 | 41 | 174 | 0.0 | 0.0 | 0.00 | 0.00 | 0.00 | 59 | 1019.0 |
| 20260502053837 | 41 | 173 | 0.0 | 0.0 | 0.00 | 0.00 | 0.00 | 59 | 1018.9 |
| 20260502053334 | 41 | 173 | 0.0 | 0.0 | 0.00 | 0.00 | 0.00 | 58 | 1018.9 |
| 20260502052831 | 41 | 173 | 0.0 | 0.0 | 0.00 | 0.00 | 0.00 | 57 | 1019.0 |
| 20260502052329 | 41 | 173 | 0.0 | 0.0 | 0.00 | 0.00 | 0.00 | 56 | 1019.0 |
| 20260502051827 | 42 | 173 | 0.0 | 0.0 | 0.00 | 0.00 | 0.00 | 55 | 1019.0 |
| 20260502051326 | 42 | 173 | 0.0 | 0.0 | 0.00 | 0.00 | 0.00 | 55 | 1019.0 |
| 20260502050821 | 42 | 178 | 0.0 | 0.0 | 0.00 | 0.00 | 0.00 | 55 | 1019.0 |
| 20260502050318 | 42 | 178 | 0.0 | 0.0 | 0.00 | 0.00 | 0.00 | 55 | 1018.9 |
| 20260502045815 | 42 | 180 | 0.0 | 0.0 | 0.00 | 0.00 | 0.00 | 54 | 1019.0 |
| 20260502045311 | 42 | 173 | 0.0 | 0.0 | 0.00 | 0.00 | 0.00 | 55 | 1018.8 |
| 20260502044809 | 42 | 176 | 0.0 | 0.0 | 0.00 | 0.00 | 0.00 | 54 | 1018.8 |
| 20260502044305 | 42 | 174 | 0.0 | 0.0 | 0.00 | 0.00 | 0.00 | 54 | 1018.9 |
| 20260502043802 | 42 | 177 | 0.0 | 0.0 | 0.00 | 0.00 | 0.00 | 55 | 1019.0 |
| 20260502043300 | 42 | 176 | 0.0 | 0.0 | 0.00 | 0.00 | 0.00 | 56 | 1019.0 |
| 20260502042759 | 42 | 173 | 0.0 | 0.0 | 0.00 | 0.00 | 0.00 | 55 | 1019.0 |
| 20260502042256 | 42 | 174 | 0.0 | 0.0 | 0.00 | 0.00 | 0.00 | 55 | 1018.9 |
| 20260502041754 | 42 | 174 | 0.0 | 0.0 | 0.00 | 0.00 | 0.00 | 55 | 1018.9 |
| 20260502041251 | 42 | 173 | 0.0 | 0.0 | 0.00 | 0.00 | 0.00 | 55 | 1019.0 |
| 20260502040748 | 42 | 175 | 0.0 | 0.0 | 0.00 | 0.00 | 0.00 | 55 | 1019.1 |
| 20260502040245 | 41 | 172 | 0.0 | 0.0 | 0.00 | 0.00 | 0.00 | 56 | 1018.9 |
| 20260502035741 | 41 | 175 | 0.0 | 0.0 | 0.00 | 0.00 | 0.00 | 56 | 1019.0 |
| 20260502035238 | 41 | 174 | 0.0 | 0.0 | 0.00 | 0.00 | 0.00 | 55 | 1018.9 |
| 20260502034735 | 42 | 174 | 0.0 | 0.0 | 0.00 | 0.00 | 0.00 | 54 | 1019.1 |
| 20260502034233 | 42 | 173 | 0.0 | 0.0 | 0.00 | 0.00 | 0.00 | 54 | 1018.9 |
| 20260502033731 | 43 | 173 | 0.0 | 0.0 | 0.00 | 0.00 | 0.00 | 53 | 1018.9 |
| 20260502033229 | 43 | 173 | 0.0 | 0.0 | 0.00 | 0.00 | 0.00 | 53 | 1019.2 |
| 20260502032725 | 43 | 173 | 0.0 | 0.0 | 0.00 | 0.00 | 0.00 | 52 | 1019.0 |
| 20260502032221 | 43 | 173 | 0.0 | 0.0 | 0.00 | 0.00 | 0.00 | 52 | 1019.0 |
| 20260502031720 | 43 | 173 | 0.0 | 0.0 | 0.00 | 0.00 | 0.00 | 52 | 1019.2 |
| 20260502031217 | 43 | 173 | 0.0 | 0.0 | 0.00 | 0.00 | 0.00 | 51 | 1019.1 |
| 20260502030716 | 43 | 175 | 0.0 | 0.0 | 0.00 | 0.00 | 0.00 | 51 | 1019.0 |
| 20260502030214 | 43 | 176 | 0.0 | 0.0 | 0.00 | 0.00 | 0.00 | 50 | 1018.9 |
| 20260502025710 | 43 | 179 | 0.0 | 0.0 | 0.00 | 0.00 | 0.00 | 50 | 1019.0 |
| 20260502025208 | 43 | 179 | 0.0 | 0.0 | 0.00 | 0.00 | 0.00 | 49 | 1018.9 |
| 20260502024706 | 44 | 179 | 0.0 | 0.0 | 0.00 | 0.00 | 0.00 | 49 | 1019.0 |
| 20260502024204 | 44 | 179 | 0.0 | 0.0 | 0.00 | 0.00 | 0.00 | 48 | 1019.0 |
| 20260502023701 | 44 | 179 | 0.0 | 0.0 | 0.00 | 0.00 | 0.00 | 47 | 1019.0 |
| 20260502023158 | 44 | 179 | 0.0 | 0.0 | 0.00 | 0.00 | 0.00 | 47 | 1018.9 |
| 20260502022655 | 44 | 179 | 0.0 | 0.0 | 0.00 | 0.00 | 0.00 | 46 | 1019.1 |
| 20260502022152 | 45 | 179 | 0.0 | 0.0 | 0.00 | 0.00 | 0.00 | 46 | 1019.1 |
| 20260502021650 | 45 | 179 | 0.0 | 0.0 | 0.00 | 0.00 | 0.00 | 45 | 1019.0 |
| 20260502021147 | 46 | 179 | 0.0 | 0.0 | 0.00 | 0.00 | 0.00 | 43 | 1019.1 |
| 20260502020644 | 46 | 179 | 0.0 | 0.0 | 0.00 | 0.00 | 0.00 | 43 | 1018.9 |
| 20260502020140 | 47 | 179 | 0.0 | 0.0 | 0.00 | 0.00 | 0.00 | 42 | 1018.7 |
| 20260502015639 | 47 | 179 | 0.0 | 0.0 | 0.00 | 0.00 | 0.00 | 41 | 1018.7 |
| 20260502015134 | 48 | 179 | 0.0 | 0.0 | 0.00 | 0.00 | 0.00 | 40 | 1018.6 |
| 20260502014632 | 48 | 179 | 0.0 | 0.0 | 0.00 | 0.00 | 0.00 | 40 | 1018.6 |
| 20260502014129 | 49 | 185 | 0.0 | 0.0 | 0.00 | 0.00 | 0.00 | 39 | 1018.4 |
| 20260502013625 | 49 | 177 | 0.0 | 0.0 | 0.00 | 0.00 | 0.00 | 37 | 1018.4 |
| 20260502013121 | 50 | 186 | 0.0 | 0.0 | 0.00 | 0.00 | 0.00 | 37 | 1018.4 |
| 20260502012618 | 50 | 182 | 0.0 | 0.0 | 0.00 | 0.00 | 0.00 | 36 | 1018.5 |
| 20260502012116 | 50 | 162 | 0.0 | 0.0 | 0.00 | 0.00 | 0.00 | 35 | 1018.4 |
| 20260502011613 | 51 | 177 | 0.0 | 0.0 | 0.00 | 0.00 | 0.00 | 35 | 1018.4 |
| 20260502011108 | 51 | 175 | 0.0 | 0.0 | 0.00 | 0.00 | 0.00 | 33 | 1018.5 |
| 20260502010606 | 52 | 303 | 1.7 | 1.7 | 0.00 | 0.00 | 0.00 | 33 | 1018.4 |
| 20260502005600 | 52 | 218 | 0.9 | 1.7 | 0.00 | 0.00 | 0.00 | 34 | 1018.5 |
| 20260502005058 | 52 | 189 | 2.6 | 2.6 | 0.00 | 0.00 | 0.00 | 33 | 1018.3 |
| 20260502004553 | 53 | 164 | 0.0 | 0.0 | 0.00 | 0.00 | 0.00 | 33 | 1018.3 |
| 20260502004050 | 53 | 157 | 0.0 | 1.7 | 0.00 | 0.00 | 0.00 | 33 | 1018.4 |
| 20260502003548 | 53 | 308 | 7.0 | 8.7 | 0.00 | 0.00 | 0.00 | 32 | 1018.6 |
| 20260502003045 | 54 | 324 | 1.7 | 2.6 | 0.00 | 0.00 | 0.00 | 32 | 1018.4 |
| 20260502002541 | 54 | 182 | 0.0 | 0.0 | 0.00 | 0.00 | 0.00 | 31 | 1018.4 |
| 20260502002038 | 53 | 27 | 1.7 | 2.6 | 0.00 | 0.00 | 0.00 | 33 | 1018.5 |
| 20260502001536 | 53 | 178 | 0.9 | 1.7 | 0.00 | 0.00 | 0.00 | 33 | 1018.3 |
| 20260502001033 | 53 | 171 | 0.9 | 1.7 | 0.00 | 0.00 | 0.00 | 33 | 1018.1 |
| 20260502000532 | 53 | 129 | 0.0 | 0.0 | 0.00 | 0.00 | 0.00 | 34 | 1018.3 |
| 20260502000028 | 53 | 359 | 1.7 | 2.6 | 0.00 | 0.00 | 0.00 | 33 | 1018.1 |
| 20260501235524 | 53 | 265 | 3.5 | 4.3 | 0.00 | 0.00 | 0.00 | 33 | 1018.5 |
| 20260501235020 | 53 | 14 | 0.9 | 1.7 | 0.00 | 0.00 | 0.00 | 34 | 1018.3 |
| 20260501234516 | 53 | 134 | 1.7 | 1.7 | 0.00 | 0.00 | 0.00 | 33 | 1018.5 |